Location: Hains Lake
(37.8540°N, 99.8578°W)
Time: 04:53:39
(UTC+00:00)

Vanguard 2 Rocket - Pass Details

Date: 18 April 2021
Orbit: 553 x 3326 km, 32.9° (Epoch: 07 May)

Event Time Altitude Azimuth Distance (km) Brightness Sun altitude
Rises 02:11:05 0° 282° (WNW) 7,171 13.4 -10.8°
Reaches altitude 10° 02:16:33 10° 277° (W) 5,924 12.4 -11.8°
Maximum altitude 02:32:12 44° 214° (SW) 2,851 9.4 -14.6°
Enters shadow 02:40:55 14° 149° (SSE) 3,525 9.4 -16.1°
Drops below altitude 10° 02:41:54 10° 146° (SE) 3,743 - -16.3°
Sets 02:44:33 0° 139° (SE) 4,412 - -16.8°
